UAL2681 KLAX-KSFO

Flight info

Callsign UAL2681
Flight time 0h 51m
Altitude 36000
Route SUMMR2 STOKD SERFR SERFR4
Aircraft A320/M-SDE3FGHIRWY/LB1

Departure

Time 2026-05-05 05:51
Airport Los Angeles International Airport (KLAX)

Arrival

Time 2026-05-05 06:42
Airport San Francisco International Airport (KSFO)
Time Latitude Longitude Altitude Speed Heading
2026-05-05 05:28 33.94071 -118.40010 96 ft 0 kts 81°
2026-05-05 05:41 33.94069 -118.40013 96 ft 4 kts 105°
2026-05-05 05:41 33.94069 -118.40024 94 ft 3 kts 79°
2026-05-05 05:41 33.94068 -118.40055 95 ft 4 kts 113°
2026-05-05 05:42 33.94083 -118.40074 96 ft 3 kts 170°
2026-05-05 05:42 33.94087 -118.40075 94 ft 0 kts 173°
2026-05-05 05:44 33.94080 -118.40074 97 ft 5 kts 173°
2026-05-05 05:44 33.93990 -118.40061 99 ft 19 kts 173°
2026-05-05 05:45 33.93947 -118.40054 99 ft 0 kts 173°
2026-05-05 05:45 33.93946 -118.40053 99 ft 0 kts 162°
2026-05-05 05:45 33.93947 -118.40044 99 ft 3 kts 84°
2026-05-05 05:45 33.93963 -118.39971 99 ft 13 kts 78°
2026-05-05 05:46 33.93976 -118.39851 96 ft 16 kts 83°
2026-05-05 05:46 33.93991 -118.39710 96 ft 18 kts 83°
2026-05-05 05:46 33.94007 -118.39548 96 ft 19 kts 83°
2026-05-05 05:46 33.94017 -118.39452 99 ft 11 kts 83°
2026-05-05 05:47 33.94028 -118.39352 98 ft 13 kts 82°
2026-05-05 05:47 33.94040 -118.39234 97 ft 15 kts 83°
2026-05-05 05:47 33.94051 -118.39118 97 ft 13 kts 83°
2026-05-05 05:47 33.94056 -118.38999 99 ft 15 kts 85°
2026-05-05 05:48 33.94064 -118.38911 97 ft 17 kts 83°
2026-05-05 05:48 33.94077 -118.38783 98 ft 14 kts 83°
2026-05-05 05:48 33.94090 -118.38662 99 ft 15 kts 83°
2026-05-05 05:48 33.94107 -118.38493 98 ft 13 kts 83°
2026-05-05 05:49 33.94116 -118.38403 101 ft 8 kts 83°
2026-05-05 05:49 33.94111 -118.38357 101 ft 8 kts 111°
2026-05-05 05:49 33.94055 -118.38336 102 ft 4 kts 174°
2026-05-05 05:49 33.94038 -118.38334 104 ft 2 kts 174°
2026-05-05 05:50 33.94029 -118.38333 104 ft 2 kts 174°
2026-05-05 05:50 33.93983 -118.38328 108 ft 12 kts 182°
2026-05-05 05:50 33.93944 -118.38419 110 ft 14 kts 263°
2026-05-05 05:50 33.93916 -118.38687 108 ft 66 kts 263°
2026-05-05 05:51 33.93835 -118.39495 108 ft 125 kts 263°
2026-05-05 05:51 33.93705 -118.40699 309 ft 150 kts 262°
2026-05-05 05:51 33.93566 -118.41932 1012 ft 149 kts 262°
2026-05-05 05:51 33.93442 -118.43167 1664 ft 149 kts 263°
2026-05-05 05:52 33.93319 -118.44427 2147 ft 159 kts 264°
2026-05-05 05:52 33.93185 -118.45822 2456 ft 181 kts 263°
2026-05-05 05:52 33.93041 -118.47431 2766 ft 205 kts 264°
2026-05-05 05:52 33.92891 -118.49238 3191 ft 229 kts 264°
2026-05-05 05:53 33.92729 -118.51245 3717 ft 249 kts 264°
2026-05-05 05:53 33.92559 -118.53356 4574 ft 257 kts 263°
2026-05-05 05:53 33.92381 -118.55514 5493 ft 261 kts 263°
2026-05-05 05:53 33.92199 -118.57704 6442 ft 265 kts 262°
2026-05-05 05:54 33.92014 -118.59919 7336 ft 268 kts 262°
2026-05-05 05:54 33.91826 -118.62161 8227 ft 271 kts 263°
2026-05-05 05:54 33.91764 -118.64441 9110 ft 275 kts 268°
2026-05-05 05:54 33.91761 -118.66757 9994 ft 278 kts 270°
2026-05-05 05:55 33.91755 -118.69141 10438 ft 296 kts 269°
2026-05-05 05:55 33.91746 -118.71720 10662 ft 319 kts 269°
2026-05-05 05:55 33.91734 -118.74485 10898 ft 339 kts 269°
2026-05-05 05:55 33.91721 -118.77362 11492 ft 346 kts 269°
2026-05-05 05:56 33.91708 -118.80273 11892 ft 349 kts 269°
2026-05-05 05:56 33.91695 -118.83196 11986 ft 349 kts 269°
2026-05-05 05:56 33.91723 -118.86143 12506 ft 353 kts 270°
2026-05-05 05:56 33.91801 -118.89104 13304 ft 355 kts 271°
2026-05-05 05:57 33.91903 -118.92083 14024 ft 357 kts 271°
2026-05-05 05:57 33.92013 -118.95079 14660 ft 360 kts 271°
2026-05-05 05:57 33.92133 -118.98099 15264 ft 363 kts 273°
2026-05-05 05:57 33.92583 -119.01112 15866 ft 369 kts 284°
2026-05-05 05:58 33.93514 -119.04011 16481 ft 375 kts 294°
2026-05-05 05:58 33.94856 -119.06734 17114 ft 380 kts 299°
2026-05-05 05:58 33.96261 -119.09444 17753 ft 383 kts 299°
2026-05-05 05:58 33.97678 -119.12182 18376 ft 387 kts 298°
2026-05-05 05:59 33.99106 -119.14948 18935 ft 391 kts 298°
2026-05-05 05:59 34.00691 -119.17642 19529 ft 397 kts 307°
2026-05-05 05:59 34.02666 -119.20012 20119 ft 405 kts 317°
2026-05-05 05:59 34.04920 -119.22010 20673 ft 410 kts 321°
2026-05-05 06:00 34.07255 -119.24007 21201 ft 413 kts 321°
2026-05-05 06:00 34.09606 -119.26021 21726 ft 416 kts 321°
2026-05-05 06:00 34.11973 -119.28049 22233 ft 418 kts 321°
2026-05-05 06:00 34.14350 -119.30093 22720 ft 421 kts 321°
2026-05-05 06:01 34.16738 -119.32155 23196 ft 424 kts 321°
2026-05-05 06:01 34.19144 -119.34236 23642 ft 427 kts 321°
2026-05-05 06:01 34.21564 -119.36327 24024 ft 429 kts 321°
2026-05-05 06:01 34.24001 -119.38432 24422 ft 431 kts 320°
2026-05-05 06:02 34.26446 -119.40546 24775 ft 434 kts 320°
2026-05-05 06:02 34.28906 -119.42675 25131 ft 436 kts 320°
2026-05-05 06:02 34.31379 -119.44816 25484 ft 438 kts 320°
2026-05-05 06:02 34.33863 -119.46965 25841 ft 441 kts 320°
2026-05-05 06:03 34.36368 -119.49132 26186 ft 443 kts 320°
2026-05-05 06:03 34.38878 -119.51307 26544 ft 446 kts 320°
2026-05-05 06:03 34.41336 -119.53600 26912 ft 445 kts 314°
2026-05-05 06:03 34.43535 -119.56225 27299 ft 444 kts 311°
2026-05-05 06:04 34.45704 -119.58905 27640 ft 447 kts 311°
2026-05-05 06:04 34.47892 -119.61595 27982 ft 449 kts 311°
2026-05-05 06:04 34.50092 -119.64296 28309 ft 451 kts 311°
2026-05-05 06:04 34.52304 -119.67012 28625 ft 454 kts 311°
2026-05-05 06:05 34.54524 -119.69739 29026 ft 454 kts 311°
2026-05-05 06:05 34.56740 -119.72467 29510 ft 453 kts 311°
2026-05-05 06:05 34.58924 -119.75159 29983 ft 453 kts 311°
2026-05-05 06:05 34.61126 -119.77879 30397 ft 452 kts 311°
2026-05-05 06:06 34.63334 -119.80609 30760 ft 452 kts 311°
2026-05-05 06:06 34.65534 -119.83332 31150 ft 452 kts 311°
2026-05-05 06:06 34.67741 -119.86063 31529 ft 452 kts 311°
2026-05-05 06:06 34.69942 -119.88790 31904 ft 453 kts 311°
2026-05-05 06:07 34.72146 -119.91524 32290 ft 453 kts 311°
2026-05-05 06:07 34.74351 -119.94262 32674 ft 454 kts 311°
2026-05-05 06:07 34.76560 -119.97005 33012 ft 455 kts 311°
2026-05-05 06:07 34.78773 -119.99756 33354 ft 455 kts 311°
2026-05-05 06:08 34.80989 -120.02507 33741 ft 456 kts 311°
2026-05-05 06:08 34.83208 -120.05263 34116 ft 456 kts 311°
2026-05-05 06:08 34.85421 -120.08021 34446 ft 456 kts 311°
2026-05-05 06:08 34.87630 -120.10785 34789 ft 455 kts 311°
2026-05-05 06:09 34.89835 -120.13546 35139 ft 454 kts 311°
2026-05-05 06:09 34.92043 -120.16309 35473 ft 454 kts 311°
2026-05-05 06:09 34.94246 -120.19064 35785 ft 454 kts 311°
2026-05-05 06:09 34.96449 -120.21819 36015 ft 455 kts 311°
2026-05-05 06:10 35.00883 -120.27372 36078 ft 458 kts 311°
2026-05-05 06:10 35.05333 -120.32952 36079 ft 459 kts 311°
2026-05-05 06:11 35.09799 -120.38536 36078 ft 460 kts 313°
2026-05-05 06:11 35.14465 -120.43877 36073 ft 460 kts 316°
2026-05-05 06:12 35.19250 -120.49079 36075 ft 460 kts 316°
2026-05-05 06:12 35.24007 -120.54317 36082 ft 460 kts 316°
2026-05-05 06:13 35.28694 -120.59586 36080 ft 461 kts 316°
2026-05-05 06:13 35.33402 -120.64913 36078 ft 461 kts 316°
2026-05-05 06:14 35.38113 -120.70245 36076 ft 461 kts 316°
2026-05-05 06:14 35.42827 -120.75575 36074 ft 461 kts 316°
2026-05-05 06:15 35.47549 -120.80917 36078 ft 462 kts 317°
2026-05-05 06:15 35.52616 -120.85772 36078 ft 463 kts 322°
2026-05-05 06:16 35.57762 -120.90532 36079 ft 463 kts 322°
2026-05-05 06:16 35.62895 -120.95312 36073 ft 463 kts 322°
2026-05-05 06:17 35.68028 -121.00092 36083 ft 463 kts 323°
2026-05-05 06:17 35.73156 -121.04867 36084 ft 462 kts 323°
2026-05-05 06:18 35.78270 -121.09640 36084 ft 462 kts 323°
2026-05-05 06:18 35.83383 -121.14429 36084 ft 462 kts 323°
2026-05-05 06:19 35.88496 -121.19225 36084 ft 462 kts 323°
2026-05-05 06:19 35.93606 -121.24023 36078 ft 461 kts 324°
2026-05-05 06:20 35.98708 -121.28818 36095 ft 461 kts 324°
2026-05-05 06:20 36.03806 -121.33611 36012 ft 460 kts 324°
2026-05-05 06:21 36.06349 -121.36002 35771 ft 459 kts 326°
2026-05-05 06:21 36.09007 -121.38162 35531 ft 456 kts 330°
2026-05-05 06:21 36.11683 -121.40241 35295 ft 454 kts 330°
2026-05-05 06:21 36.14358 -121.42324 34937 ft 453 kts 331°
2026-05-05 06:22 36.17035 -121.44408 34079 ft 457 kts 332°
2026-05-05 06:22 36.19735 -121.46514 33081 ft 459 kts 333°
2026-05-05 06:22 36.22434 -121.48622 32196 ft 458 kts 333°
2026-05-05 06:22 36.25129 -121.50729 31220 ft 459 kts 335°
2026-05-05 06:23 36.27825 -121.52840 30268 ft 459 kts 336°
2026-05-05 06:23 36.30522 -121.54967 29120 ft 459 kts 335°
2026-05-05 06:23 36.33223 -121.57094 27986 ft 460 kts 335°
2026-05-05 06:23 36.35925 -121.59215 26831 ft 461 kts 334°
2026-05-05 06:24 36.38641 -121.61342 25793 ft 461 kts 334°
2026-05-05 06:24 36.41326 -121.63452 25183 ft 452 kts 334°
2026-05-05 06:24 36.43921 -121.65506 25024 ft 433 kts 333°
2026-05-05 06:24 36.46413 -121.67482 24900 ft 416 kts 334°
2026-05-05 06:25 36.48807 -121.69379 24720 ft 402 kts 334°
2026-05-05 06:25 36.51147 -121.71226 24343 ft 396 kts 334°
2026-05-05 06:25 36.53472 -121.73054 23812 ft 396 kts 334°
2026-05-05 06:25 36.55795 -121.74879 23323 ft 393 kts 333°
2026-05-05 06:26 36.58109 -121.76699 22653 ft 394 kts 333°
2026-05-05 06:26 36.60405 -121.78508 22279 ft 388 kts 333°
2026-05-05 06:26 36.62660 -121.80291 21474 ft 382 kts 333°
2026-05-05 06:26 36.64883 -121.82052 20871 ft 378 kts 332°
2026-05-05 06:27 36.67100 -121.83807 20318 ft 378 kts 332°
2026-05-05 06:27 36.71526 -121.87324 19207 ft 377 kts 331°
2026-05-05 06:27 36.73781 -121.88966 18670 ft 373 kts 339°
2026-05-05 06:28 36.76213 -121.89998 18147 ft 366 kts 350°
2026-05-05 06:28 36.78683 -121.90700 17650 ft 361 kts 350°
2026-05-05 06:28 36.81121 -121.91384 17151 ft 357 kts 351°
2026-05-05 06:28 36.83541 -121.92053 16629 ft 355 kts 351°
2026-05-05 06:29 36.85940 -121.92715 16119 ft 351 kts 350°
2026-05-05 06:29 36.88310 -121.93372 15551 ft 345 kts 350°
2026-05-05 06:29 36.90634 -121.94024 14885 ft 342 kts 350°
2026-05-05 06:29 36.92955 -121.94676 14395 ft 340 kts 350°
2026-05-05 06:30 36.95246 -121.95321 13909 ft 338 kts 348°
2026-05-05 06:30 36.97507 -121.96081 13358 ft 336 kts 345°
2026-05-05 06:30 36.99735 -121.96937 12879 ft 333 kts 343°
2026-05-05 06:30 37.01190 -121.97523 12526 ft 332 kts 343°
2026-05-05 06:31 37.04112 -121.98716 11872 ft 329 kts 343°
2026-05-05 06:31 37.06280 -121.99593 11389 ft 326 kts 343°
2026-05-05 06:31 37.08438 -122.00455 10913 ft 324 kts 343°
2026-05-05 06:31 37.10584 -122.01304 10445 ft 323 kts 343°
2026-05-05 06:32 37.12690 -122.02132 10293 ft 311 kts 343°
2026-05-05 06:32 37.14716 -122.02926 10163 ft 300 kts 343°
2026-05-05 06:32 37.16671 -122.03691 10016 ft 290 kts 343°
2026-05-05 06:32 37.18575 -122.04434 9849 ft 282 kts 343°
2026-05-05 06:33 37.20425 -122.05157 9648 ft 275 kts 343°
2026-05-05 06:33 37.22262 -122.05874 9240 ft 276 kts 343°
2026-05-05 06:33 37.24100 -122.06591 8903 ft 275 kts 342°
2026-05-05 06:33 37.25940 -122.07313 8475 ft 278 kts 342°
2026-05-05 06:34 37.27788 -122.08040 8066 ft 280 kts 342°
2026-05-05 06:34 37.29643 -122.08770 7715 ft 279 kts 341°
2026-05-05 06:34 37.30867 -122.09255 7537 ft 277 kts 341°
2026-05-05 06:34 37.33354 -122.10239 6916 ft 283 kts 341°
2026-05-05 06:35 37.35248 -122.10988 6484 ft 286 kts 341°
2026-05-05 06:35 37.37152 -122.11742 6071 ft 287 kts 341°
2026-05-05 06:35 37.38413 -122.12229 5818 ft 287 kts 342°
2026-05-05 06:35 37.40971 -122.13131 5366 ft 284 kts 343°
2026-05-05 06:36 37.42231 -122.13556 5141 ft 283 kts 344°
2026-05-05 06:36 37.44702 -122.14381 4692 ft 265 kts 342°
2026-05-05 06:36 37.46444 -122.14956 4371 ft 252 kts 344°
2026-05-05 06:36 37.47554 -122.15316 4180 ft 244 kts 343°
2026-05-05 06:37 37.49160 -122.15835 3898 ft 232 kts 343°
2026-05-05 06:37 37.50686 -122.16329 3617 ft 221 kts 343°
2026-05-05 06:37 37.52138 -122.16808 3358 ft 210 kts 340°
2026-05-05 06:37 37.53380 -122.17612 3148 ft 192 kts 319°
2026-05-05 06:38 37.54215 -122.18790 3048 ft 171 kts 300°
2026-05-05 06:38 37.54750 -122.20035 3007 ft 155 kts 296°
2026-05-05 06:38 37.55250 -122.21218 2912 ft 153 kts 296°
2026-05-05 06:38 37.55761 -122.22430 2554 ft 159 kts 296°
2026-05-05 06:39 37.56276 -122.23650 2254 ft 153 kts 297°
2026-05-05 06:39 37.56754 -122.24783 2047 ft 138 kts 297°
2026-05-05 06:39 37.57197 -122.25833 1848 ft 133 kts 297°
2026-05-05 06:39 37.57626 -122.26852 1667 ft 131 kts 297°
2026-05-05 06:40 37.58051 -122.27861 1477 ft 130 kts 297°
2026-05-05 06:40 37.58473 -122.28863 1300 ft 131 kts 297°
2026-05-05 06:40 37.58897 -122.29873 1117 ft 131 kts 297°
2026-05-05 06:40 37.59326 -122.30891 939 ft 131 kts 297°
2026-05-05 06:41 37.59751 -122.31901 752 ft 130 kts 298°
2026-05-05 06:41 37.60173 -122.32901 578 ft 129 kts 298°
2026-05-05 06:41 37.60588 -122.33893 394 ft 127 kts 298°
2026-05-05 06:41 37.61001 -122.34874 237 ft 127 kts 297°
2026-05-05 06:42 37.61405 -122.35853 54 ft 125 kts 298°
2026-05-05 06:42 37.61766 -122.36709 23 ft 90 kts 298°
2026-05-05 06:42 37.61984 -122.37216 22 ft 45 kts 298°
2026-05-05 06:42 37.62121 -122.37540 22 ft 39 kts 298°
2026-05-05 06:43 37.62223 -122.37840 22 ft 36 kts 283°
2026-05-05 06:43 37.62227 -122.38072 25 ft 23 kts 265°
2026-05-05 06:43 37.62168 -122.38206 25 ft 15 kts 188°
2026-05-05 06:43 37.62088 -122.38261 24 ft 6 kts 212°
2026-05-05 06:44 37.62051 -122.38287 22 ft 6 kts 208°
2026-05-05 06:44 37.62022 -122.38322 24 ft 6 kts 258°
2026-05-05 06:44 37.62037 -122.38373 22 ft 7 kts 295°
2026-05-05 06:44 37.62060 -122.38430 24 ft 8 kts 297°
2026-05-05 06:45 37.62074 -122.38500 22 ft 9 kts 265°
2026-05-05 06:45 37.62032 -122.38552 23 ft 9 kts 213°
2026-05-05 06:45 37.61974 -122.38573 22 ft 9 kts 179°
2026-05-05 06:45 37.61929 -122.38596 22 ft 5 kts 215°
2026-05-05 06:46 37.61921 -122.38609 24 ft 1 kts 229°
2026-05-05 06:46 37.61909 -122.38624 24 ft 2 kts 226°
2026-05-05 06:46 37.61905 -122.38630 24 ft 0 kts 225°